| time (UTC) | temp F | wind direction | speed MPH | gust MPH | rain 1hr in | rain 24hr in | rain mn in | humidity % | barometer mb |
| 20260503211525 | 71 | 214 | 2.0 | 6.0 | 0.00 | 0.00 | 0.00 | 46 | 1017.2 |
| 20260503210025 | 69 | 258 | 0.0 | 5.0 | 0.00 | 0.00 | 0.00 | 47 | 1017.5 |
| 20260503204530 | 69 | 302 | 1.0 | 9.0 | 0.00 | 0.00 | 0.00 | 45 | 1017.5 |
| 20260503203020 | 69 | 263 | 5.0 | 13.0 | 0.00 | 0.00 | 0.00 | 45 | 1017.6 |
| 20260503201503 | 69 | 270 | 3.0 | 10.0 | 0.00 | 0.00 | 0.00 | 45 | 1017.9 |
| 20260503200009 | 68 | 275 | 2.0 | 9.0 | 0.00 | 0.00 | 0.00 | 47 | 1017.9 |
| 20260503194514 | 69 | 233 | 1.0 | 5.0 | 0.00 | 0.00 | 0.00 | 44 | 1018.3 |
| 20260503193006 | 68 | 295 | 4.0 | 10.0 | 0.00 | 0.01 | 0.00 | 46 | 1018.6 |
| 20260503191503 | 68 | 226 | 1.0 | 11.0 | 0.00 | 0.02 | 0.00 | 46 | 1018.8 |
| 20260503190008 | 68 | 5 | 1.0 | 11.0 | 0.00 | 0.03 | 0.00 | 47 | 1019.2 |
| 20260503184520 | 67 | 309 | 1.0 | 4.0 | 0.00 | 0.03 | 0.00 | 50 | 1019.3 |
| 20260503183014 | 67 | 302 | 3.0 | 9.0 | 0.00 | 0.05 | 0.00 | 49 | 1019.6 |
| 20260503181505 | 66 | 28 | 2.0 | 6.0 | 0.00 | 0.07 | 0.00 | 50 | 1019.7 |
| 20260503180009 | 66 | 244 | 0.0 | 7.0 | 0.00 | 0.07 | 0.00 | 49 | 1019.9 |
| 20260503174507 | 66 | 329 | 7.0 | 12.0 | 0.00 | 0.07 | 0.00 | 49 | 1019.9 |
| 20260503173022 | 66 | 98 | 1.0 | 9.0 | 0.00 | 0.07 | 0.00 | 49 | 1020.0 |
| 20260503171522 | 66 | 309 | 1.0 | 8.0 | 0.00 | 0.07 | 0.00 | 49 | 1020.3 |
| 20260503081514 | 48 | 304 | 0.0 | 0.0 | 0.00 | 0.62 | 0.00 | 80 | 1017.4 |
| 20260503071512 | 49 | 304 | 0.0 | 0.0 | 0.00 | 0.67 | 0.00 | 80 | 1017.1 |
| 20260503054516 | 51 | 340 | 2.0 | 3.0 | 0.00 | 0.72 | 0.00 | 79 | 1017.0 |
| 20260503053024 | 51 | 340 | 1.0 | 3.0 | 0.00 | 0.73 | 0.00 | 79 | 1017.0 |
| 20260503051528 | 51 | 341 | 1.0 | 3.0 | 0.00 | 0.73 | 0.00 | 79 | 1016.7 |
| 20260503050014 | 51 | 341 | 1.0 | 3.0 | 0.00 | 0.73 | 0.00 | 79 | 1016.6 |
| 20260503044529 | 51 | 341 | 0.0 | 3.0 | 0.00 | 0.73 | 0.00 | 79 | 1016.4 |
| 20260503043020 | 52 | 341 | 1.0 | 3.0 | 0.00 | 0.73 | 0.00 | 79 | 1016.2 |
| 20260503041524 | 52 | 12 | 1.0 | 3.0 | 0.00 | 0.73 | 0.00 | 79 | 1016.2 |
| 20260503040029 | 52 | 339 | 0.0 | 3.0 | 0.00 | 0.73 | 0.00 | 79 | 1016.1 |
| 20260503034515 | 53 | 329 | 1.0 | 3.0 | 0.00 | 0.73 | 0.73 | 79 | 1016.0 |
| 20260503033017 | 53 | 327 | 1.0 | 3.0 | 0.00 | 0.73 | 0.73 | 79 | 1015.7 |
| 20260503031521 | 53 | 327 | 0.0 | 2.0 | 0.00 | 0.73 | 0.73 | 79 | 1015.5 |
| 20260503030024 | 53 | 337 | 1.0 | 4.0 | 0.00 | 0.73 | 0.73 | 79 | 1015.4 |
| 20260503024528 | 53 | 350 | 1.0 | 3.0 | 0.00 | 0.73 | 0.73 | 80 | 1015.0 |
| 20260503023027 | 53 | 350 | 0.0 | 2.0 | 0.00 | 0.73 | 0.73 | 80 | 1014.8 |
| 20260503021528 | 54 | 350 | 2.0 | 6.0 | 0.00 | 0.73 | 0.73 | 80 | 1014.7 |
| 20260503020029 | 54 | 352 | 2.0 | 5.0 | 0.00 | 0.74 | 0.73 | 80 | 1014.5 |
| 20260503014526 | 54 | 343 | 3.0 | 6.0 | 0.00 | 0.74 | 0.73 | 80 | 1014.5 |
| 20260503013036 | 54 | 335 | 2.0 | 4.0 | 0.00 | 0.74 | 0.73 | 80 | 1014.1 |
| 20260503011533 | 54 | 9 | 0.0 | 4.0 | 0.00 | 0.74 | 0.73 | 80 | 1013.8 |
| 20260503010028 | 55 | 18 | 0.0 | 5.0 | 0.00 | 0.74 | 0.73 | 80 | 1013.8 |
| 20260503004532 | 55 | 360 | 3.0 | 5.0 | 0.00 | 0.74 | 0.73 | 80 | 1014.1 |
| 20260503003030 | 55 | 9 | 3.0 | 9.0 | 0.00 | 0.74 | 0.73 | 80 | 1013.7 |
| 20260503001528 | 55 | 352 | 3.0 | 6.0 | 0.00 | 0.74 | 0.73 | 79 | 1013.3 |
| 20260503000028 | 55 | 14 | 2.0 | 4.0 | 0.00 | 0.74 | 0.73 | 79 | 1013.1 |
| 20260502234527 | 55 | 5 | 2.0 | 5.0 | 0.00 | 0.74 | 0.73 | 79 | 1013.0 |
| 20260502233028 | 55 | 346 | 3.0 | 8.0 | 0.00 | 0.74 | 0.73 | 79 | 1012.9 |
| 20260502231527 | 55 | 340 | 3.0 | 10.0 | 0.00 | 0.74 | 0.73 | 79 | 1012.7 |
| 20260502230022 | 55 | 30 | 2.0 | 10.0 | 0.00 | 0.74 | 0.73 | 80 | 1012.2 |
| 20260502224520 | 55 | 350 | 5.0 | 11.0 | 0.00 | 0.74 | 0.73 | 80 | 1012.8 |
| 20260502223024 | 55 | 5 | 2.0 | 4.0 | 0.00 | 0.74 | 0.73 | 80 | 1012.6 |
| 20260502221527 | 56 | 35 | 2.0 | 5.0 | 0.00 | 0.74 | 0.73 | 80 | 1012.5 |
| 20260502220025 | 56 | 26 | 4.0 | 10.0 | 0.00 | 0.74 | 0.73 | 79 | 1012.4 |
| 20260502214526 | 56 | 360 | 6.0 | 16.0 | 0.00 | 0.74 | 0.73 | 80 | 1012.0 |
| 20260502213027 | 56 | 17 | 6.0 | 11.0 | 0.00 | 0.74 | 0.73 | 78 | 1011.9 |